星链-3175 (STARLINK-3175 )

导读

STARLINK-3175是美国SpaceX公司星链(Starlink)互联网星座项目的卫星,于北京时间2022年1月19日发射入轨。该卫星运行于近地轨道,属于Starlink v1.0卫星平台,由SpaceX自主研发制造,服务于全球卫星互联网项目,旨在为全球尤其是偏远地区提供高速低延迟宽带互联网服务,也可为军事、航空等领域提供通信支持。

Basic Information
目录编号:
51140
目录名称:
STARLINK-3175
国际标识:
2022-005AN
轨道中心:
EARTH
卫星名称:
星链-3175
卫星全名:
星链-3175 (STARLINK-3175 )
卫星状态:
在轨 (已飞行1610 天)
发射日期:
2022-01-19 UTC
国别 :
美国 (US)
星等 :
--
Orbit Information
数据来源 国际轨道数据 AOE轨道数据
星历时间 2026-06-17T13:06:56+0800
7小时前
查看轨道信息
2026-06-14T04:00:00+0800
3天前
查看轨道信息
半长轴 6916.365km 6917.921km
偏心率 0.0002628 0.0001213
轨道倾角 53.159° 53.156°
近地点辐角 59.092° 69.484°
升交点赤经 212.249° 227.451°
平近点角 301.033° 278.698°
近地点 536.41km 538.944km
远地点 540.046km 540.624km
周期 95.406分钟 95.438分钟
每日圈数 15.093362 15.088269
Detailed Information
固有亮度:
5
最大亮度:
2.5
卫星平台:
Starlink v1.5
覆盖范围:
全球
运营商:
太空探索技术公司
运营商所在国:
美国
制造商(研发单位):
太空探索技术公司
制造商所在国:
美国
使用方式:
暂无
Satellite Introduction
星链(Starlink)计划是由太空探索技术公司(SpaceX)提出的一个巨型低轨卫星互联网星座项目,计划在2019年至2024年间在太空搭建由约1.2万颗卫星组成的“星链”网络,其中1584颗将部署在地球上空550千米处的近地轨道,并从2020年开始工作。该卫星仍在工作。
2D Orbit Map
3D Orbit Map
Orbit Altitude Analysis Chart
Orbit Inclination Analysis Chart
Orbit Comprehensive Analysis Chart
View Comprehensive Chart